Location: Emblem
(62.4273°N, 6.4710°E)
Time: 07:54:38
(UTC+01:00)

A-11 Canister half - Visible Passes

Search period start: 18 January 2026 00:00
Search period end: 28 January 2026 00:00
Orbit: 1511 x 1688 km, 47.2° (Epoch: 17 January)

Date Brightness Start Highest point End Pass type
(mag) Time Alt. Az. Time Alt. Az. Time Alt. Az.
18 Jan 10.9 05:43:51 10° S 05:49:43 19° SE 05:55:31 10° ESE visible
18 Jan 10.5 07:44:32 10° SW 07:52:11 30° SSE 07:59:43 10° ESE visible
19 Jan 10.9 05:21:09 10° S 05:26:49 18° SE 05:32:26 10° ESE visible
19 Jan 10.5 07:21:37 10° SW 07:29:15 29° SSE 07:36:45 10° ESE visible
20 Jan 10.9 04:58:27 10° S 05:03:57 17° SE 05:09:21 10° ESE visible
20 Jan 10.4 06:58:43 10° SW 07:06:19 29° SSE 07:13:48 10° ESE visible
21 Jan 10.9 04:35:47 10° S 04:41:03 16° SE 04:46:16 10° ESE visible
21 Jan 10.4 06:35:49 10° SW 06:43:24 28° SSE 06:50:50 10° ESE visible
22 Jan 10.8 04:13:44 11° SSE 04:18:11 16° SE 04:23:08 10° ESE visible
22 Jan 10.4 06:12:56 10° SW 06:20:28 28° SSE 06:27:53 10° ESE visible
22 Jan 10.3 08:15:30 10° WSW 08:23:17 31° S 08:30:57 10° SE visible
23 Jan 10.8 03:52:15 13° SSE 03:55:17 15° SE 04:00:00 10° ESE visible
23 Jan 10.3 05:50:28 11° SSW 05:57:33 28° SSE 06:04:54 10° ESE visible
23 Jan 10.3 07:52:30 10° WSW 08:00:21 31° S 08:08:03 10° SE visible
24 Jan 10.8 03:30:41 14° SSE 03:32:25 14° SE 03:36:49 10° ESE visible
24 Jan 10.3 05:28:53 15° SSW 05:34:37 27° SSE 05:41:56 10° ESE visible
24 Jan 10.2 07:29:33 10° WSW 07:37:25 31° S 07:45:08 10° SE visible
25 Jan 10.8 03:09:03 14° SE 03:09:32 14° SE 03:13:37 10° ESE visible
25 Jan 10.3 05:07:15 19° SSW 05:11:43 27° SSE 05:18:58 10° ESE visible
25 Jan 10.2 07:06:35 10° WSW 07:14:29 31° S 07:22:13 10° SE visible
26 Jan 10.9 02:47:22 13° SE 02:47:22 13° SE 02:50:22 10° ESE visible
26 Jan 10.2 04:45:34 22° S 04:48:47 26° SSE 04:55:58 10° ESE visible
26 Jan 10.1 06:43:45 10° WSW 06:51:33 32° S 06:59:19 10° SE visible
27 Jan 10.9 02:25:38 11° ESE 02:25:38 11° ESE 02:27:01 10° ESE visible
27 Jan 10.2 04:23:48 24° S 04:25:52 25° SSE 04:32:59 10° ESE visible
27 Jan 10.1 06:22:00 14° SW 06:28:37 32° S 06:36:23 10° ESE visible
